WetterOnline ( https://www.wetteronline.de )

Wetter aktuell Prag

Aktuelles Wetter: Prag-Kbely (287m)

6-stündlich | Neueste Meldungen
Ortszeit Temperatur Wetter
Mo, 23.09. 14:00 16.3° C leicht bewölkt
Mo, 23.09. 8:00 8.5° C leicht bewölkt
Mo, 23.09. 2:00 10.1° C leicht bewölkt
So, 22.09. 20:00 14.7° C leicht bewölkt
So, 22.09. 14:00 20.3° C wolkenlos
So, 22.09. 8:00 8.0° C fast wolkenlos
So, 22.09. 2:00 8.2° C wolkenlos
Sa, 21.09. 20:00 13.2° C wolkenlos
Ortszeit Temperatur Wetter
Mo, 23.09. 19:00 16.6° C leicht bewölkt
Mo, 23.09. 18:00 17.3° C leicht bewölkt
Mo, 23.09. 17:00 17.9° C leicht bewölkt
Mo, 23.09. 16:00 17.9° C leicht bewölkt
Mo, 23.09. 15:00 16.9° C leicht bewölkt
Mo, 23.09. 14:00 16.3° C leicht bewölkt
Ortszeit Relative Feuchte Sichtweite
Mo, 23.09. 14:00 52% 30 km
Mo, 23.09. 8:00 79% 20 km
Mo, 23.09. 2:00 67% 30 km
So, 22.09. 20:00 54% 30 km
So, 22.09. 14:00 37% 30 km
So, 22.09. 8:00 80% 30 km
So, 22.09. 2:00 77% 20 km
Sa, 21.09. 20:00 61% 30 km
Ortszeit Relative Feuchte Sichtweite
Mo, 23.09. 19:00 53% 30 km
Mo, 23.09. 18:00 54% 30 km
Mo, 23.09. 17:00 48% 30 km
Mo, 23.09. 16:00 48% 30 km
Mo, 23.09. 15:00 49% 30 km
Mo, 23.09. 14:00 52% 30 km
Ortszeit Niederschlagsmenge Niederschlagsart
Mo, 23.09. 14:00 0.0 l/m2 in 6 Std. -
Mo, 23.09. 8:00 0.0 l/m2 in 12 Std. -
Mo, 23.09. 2:00 0.0 l/m2 in 6 Std. -
So, 22.09. 20:00 0.0 l/m2 in 12 Std. -
So, 22.09. 14:00 0.0 l/m2 in 6 Std. -
So, 22.09. 8:00 0.0 l/m2 in 12 Std. -
So, 22.09. 2:00 0.0 l/m2 in 6 Std. -
Sa, 21.09. 20:00 0.0 l/m2 in 12 Std. -
Ortszeit Niederschlagsmenge Niederschlagsart
Mo, 23.09. 19:00 0.0 l/m2 in 1 Std. -
Mo, 23.09. 18:00 0.0 l/m2 in 1 Std. -
Mo, 23.09. 17:00 0.0 l/m2 in 1 Std. -
Mo, 23.09. 16:00 0.0 l/m2 in 1 Std. -
Mo, 23.09. 15:00 0.0 l/m2 in 1 Std. -
Mo, 23.09. 14:00 0.0 l/m2 in 1 Std. -
Ortszeit Stärke Spitze Richtung
km/h Bft. km/h Grad Sektor
Mo, 23.09. 14:00 4 1 - 190° S
Mo, 23.09. 8:00 4 1 - 50° NO
Mo, 23.09. 2:00 4 1 - 60° NO
So, 22.09. 20:00 11 2 - 100° O
So, 22.09. 14:00 18 3 - 90° O
So, 22.09. 8:00 14 3 - 80° O
So, 22.09. 2:00 14 3 - 80° O
Sa, 21.09. 20:00 11 2 - 70° O
Ortszeit Stärke Spitze Richtung
km/h Bft. km/h Grad Sektor
Mo, 23.09. 19:00 4 1 - 300° NW
Mo, 23.09. 18:00 4 1 - 30° NO
Mo, 23.09. 17:00 4 1 - 350° N
Mo, 23.09. 16:00 7 2 - 290° W
Mo, 23.09. 15:00 7 2 - 220° SW
Mo, 23.09. 14:00 4 1 - 190° S
Ortszeit Untergrenze Bedeckung Gattung
total tief tief mittel hoch
Mo, 23.09. 14:00 4200 m 7/8 3/8 - Ac Ci
Mo, 23.09. 8:00 4500 m 4/8 4/8 - Ac Ci
Mo, 23.09. 2:00 6300 m 3/8 0/8 - - Ci
So, 22.09. 20:00 6900 m 5/8 0/8 - - Cs
So, 22.09. 14:00 - 0/8 0/8 - - -
So, 22.09. 8:00 2700 m 1/8 1/8 - Ac -
So, 22.09. 2:00 - 0/8 0/8 - - -
Sa, 21.09. 20:00 - 0/8 0/8 - - -
Ortszeit Bedeckungsgrad in Achtel und Wolkenuntergrenze
Mo, 23.09. 19:00 6(4800m)
Mo, 23.09. 18:00 6(4800m)
Mo, 23.09. 17:00 3(4800m) 7(6600m)
Mo, 23.09. 16:00 4(4800m) 7(6300m)
Mo, 23.09. 15:00 3(4500m) 7(6000m)
Mo, 23.09. 14:00 3(4200m) 7(6000m)
Ortszeit Luftdruck NN (hPa) Tendenz (hPa in 3 Std.)
Mo, 23.09. 14:00 1014 - 0,1
Mo, 23.09. 8:00 1014 + 0,7
Mo, 23.09. 2:00 1013 - 0,4
So, 22.09. 20:00 1013 0,0
So, 22.09. 14:00 1014 - 2,7
So, 22.09. 8:00 1019 - 0,3
So, 22.09. 2:00 1021 - 0,7
Sa, 21.09. 20:00 1021 - 0,9
Ortszeit Luftdruck NN (hPa) Tendenz (hPa in 3 Std.)
Mo, 23.09. 19:00 1015 + 0,6
Mo, 23.09. 18:00 1014 + 0,3
Mo, 23.09. 17:00 1014 + 0,1
Mo, 23.09. 16:00 1014 - 0,1
Mo, 23.09. 15:00 1014 - 0,1
Mo, 23.09. 14:00 1014 - 0,1
Ortszeit Schneehöhe (cm)
Mo, 23.09. 14:00 -
Mo, 23.09. 8:00 -
Mo, 23.09. 2:00 -
So, 22.09. 20:00 -
So, 22.09. 14:00 -
So, 22.09. 8:00 -
So, 22.09. 2:00 -
Sa, 21.09. 20:00 -
Ortszeit Schneehöhe (cm)
Mo, 23.09. 19:00 -
Mo, 23.09. 18:00 -
Mo, 23.09. 17:00 -
Mo, 23.09. 16:00 -
Mo, 23.09. 15:00 -
Mo, 23.09. 14:00 -
Link zu dieser Seite / Seite empfehlen

Das Wetter in ...